SAS448 EKCH-ESGG

Flight info

Callsign SAS448
Flight time 0h 28m
Altitude 14000
Route VEDAR L997 RISMA
Aircraft A320/M-SDE3FGIJ1RWXY/ALB1

Departure

Time 2026-04-22 10:28
Airport Copenhagen Kastrup Airport (EKCH)

Arrival

Time 2026-04-22 10:56
Airport Göteborg Landvetter Airport (ESGG)
Time Latitude Longitude Altitude Speed Heading
2026-04-22 10:04 55.62645 12.64552 44 ft 0 kts 281°
2026-04-22 10:13 55.62645 12.64553 17 ft 0 kts 281°
2026-04-22 10:13 55.62643 12.64576 17 ft 3 kts 279°
2026-04-22 10:13 55.62640 12.64612 18 ft 3 kts 272°
2026-04-22 10:13 55.62641 12.64646 18 ft 3 kts 249°
2026-04-22 10:14 55.62649 12.64669 21 ft 2 kts 198°
2026-04-22 10:14 55.62652 12.64671 21 ft 1 kts 192°
2026-04-22 10:14 55.62643 12.64667 19 ft 3 kts 193°
2026-04-22 10:14 55.62623 12.64659 19 ft 3 kts 192°
2026-04-22 10:15 55.62603 12.64654 17 ft 3 kts 185°
2026-04-22 10:15 55.62583 12.64653 17 ft 3 kts 181°
2026-04-22 10:15 55.62563 12.64653 17 ft 3 kts 180°
2026-04-22 10:15 55.62542 12.64653 17 ft 3 kts 180°
2026-04-22 10:16 55.62531 12.64653 17 ft 0 kts 180°
2026-04-22 10:19 55.62529 12.64653 17 ft 1 kts 180°
2026-04-22 10:19 55.62519 12.64653 17 ft 3 kts 179°
2026-04-22 10:19 55.62494 12.64658 18 ft 4 kts 173°
2026-04-22 10:20 55.62439 12.64672 17 ft 10 kts 175°
2026-04-22 10:20 55.62369 12.64676 17 ft 10 kts 179°
2026-04-22 10:20 55.62312 12.64737 17 ft 10 kts 126°
2026-04-22 10:20 55.62255 12.64794 17 ft 10 kts 179°
2026-04-22 10:21 55.62190 12.64751 19 ft 10 kts 212°
2026-04-22 10:21 55.62135 12.64688 18 ft 11 kts 213°
2026-04-22 10:21 55.62058 12.64600 18 ft 14 kts 213°
2026-04-22 10:21 55.61971 12.64515 17 ft 14 kts 198°
2026-04-22 10:22 55.61872 12.64516 18 ft 14 kts 169°
2026-04-22 10:22 55.61775 12.64548 19 ft 14 kts 169°
2026-04-22 10:22 55.61677 12.64562 17 ft 14 kts 195°
2026-04-22 10:22 55.61592 12.64472 17 ft 14 kts 213°
2026-04-22 10:23 55.61507 12.64373 17 ft 15 kts 213°
2026-04-22 10:23 55.61419 12.64272 19 ft 15 kts 213°
2026-04-22 10:23 55.61329 12.64169 18 ft 16 kts 213°
2026-04-22 10:23 55.61237 12.64060 17 ft 16 kts 214°
2026-04-22 10:24 55.61151 12.63964 17 ft 14 kts 211°
2026-04-22 10:24 55.61081 12.63884 17 ft 12 kts 213°
2026-04-22 10:24 55.61010 12.63802 18 ft 13 kts 213°
2026-04-22 10:24 55.60932 12.63713 17 ft 14 kts 213°
2026-04-22 10:25 55.60851 12.63620 17 ft 13 kts 212°
2026-04-22 10:25 55.60771 12.63527 19 ft 15 kts 213°
2026-04-22 10:25 55.60678 12.63418 18 ft 17 kts 214°
2026-04-22 10:25 55.60580 12.63280 17 ft 19 kts 221°
2026-04-22 10:26 55.60485 12.63136 17 ft 16 kts 216°
2026-04-22 10:26 55.60397 12.63160 17 ft 7 kts 131°
2026-04-22 10:26 55.60361 12.63230 19 ft 8 kts 131°
2026-04-22 10:26 55.60327 12.63309 19 ft 8 kts 115°
2026-04-22 10:27 55.60363 12.63387 21 ft 11 kts 36°
2026-04-22 10:27 55.60381 12.63415 19 ft 0 kts 41°
2026-04-22 10:27 55.60386 12.63422 18 ft 12 kts 41°
2026-04-22 10:27 55.60646 12.63822 19 ft 84 kts 41°
2026-04-22 10:28 55.61231 12.64726 19 ft 136 kts 41°
2026-04-22 10:28 55.62040 12.65990 98 ft 166 kts 41°
2026-04-22 10:28 55.62883 12.67340 624 ft 165 kts 37°
2026-04-22 10:28 55.63801 12.68763 866 ft 186 kts 37°
2026-04-22 10:29 55.64846 12.70340 1120 ft 209 kts 32°
2026-04-22 10:29 55.66240 12.71185 1468 ft 224 kts 355°
2026-04-22 10:29 55.67824 12.70707 2198 ft 234 kts 349°
2026-04-22 10:29 55.69441 12.70276 3194 ft 236 kts 351°
2026-04-22 10:30 55.71082 12.69957 4167 ft 239 kts 353°
2026-04-22 10:30 55.72751 12.69702 5067 ft 243 kts 354°
2026-04-22 10:30 55.74431 12.69483 5924 ft 247 kts 355°
2026-04-22 10:30 55.76185 12.69275 6795 ft 251 kts 356°
2026-04-22 10:31 55.77923 12.69082 7602 ft 255 kts 356°
2026-04-22 10:31 55.79729 12.68857 8443 ft 259 kts 352°
2026-04-22 10:31 55.81455 12.67848 9224 ft 266 kts 332°
2026-04-22 10:31 55.82895 12.65728 10006 ft 275 kts 311°
2026-04-22 10:32 55.83842 12.62699 10636 ft 290 kts 296°
2026-04-22 10:32 55.84630 12.59241 10842 ft 313 kts 295°
2026-04-22 10:32 55.85457 12.55509 11072 ft 334 kts 294°
2026-04-22 10:32 55.86297 12.51661 11636 ft 341 kts 294°
2026-04-22 10:33 55.87169 12.47647 12278 ft 346 kts 294°
2026-04-22 10:33 55.88036 12.43687 12925 ft 350 kts 295°
2026-04-22 10:33 55.89131 12.39810 13599 ft 351 kts 306°
2026-04-22 10:33 55.90652 12.36425 14150 ft 351 kts 318°
2026-04-22 10:34 55.92524 12.33676 14296 ft 349 kts 330°
2026-04-22 10:34 55.94740 12.31649 14325 ft 366 kts 341°
2026-04-22 10:34 55.97210 12.30372 14335 ft 373 kts 348°
2026-04-22 10:34 55.99731 12.29220 14334 ft 375 kts 347°
2026-04-22 10:35 56.02258 12.28051 14331 ft 375 kts 347°
2026-04-22 10:35 56.04782 12.26872 14330 ft 375 kts 347°
2026-04-22 10:35 56.07305 12.25686 14331 ft 375 kts 347°
2026-04-22 10:35 56.09830 12.24502 14332 ft 375 kts 348°
2026-04-22 10:36 56.12391 12.23634 14333 ft 374 kts 353°
2026-04-22 10:36 56.14957 12.22940 14329 ft 374 kts 353°
2026-04-22 10:36 56.17532 12.22239 14328 ft 374 kts 353°
2026-04-22 10:36 56.20100 12.21537 14331 ft 374 kts 353°
2026-04-22 10:37 56.22674 12.20828 14329 ft 374 kts 353°
2026-04-22 10:37 56.27820 12.19405 14342 ft 374 kts 353°
2026-04-22 10:37 56.30394 12.18691 14339 ft 374 kts 353°
2026-04-22 10:38 56.32969 12.17979 14340 ft 374 kts 353°
2026-04-22 10:38 56.35545 12.17264 14338 ft 374 kts 353°
2026-04-22 10:38 56.38119 12.16547 14339 ft 374 kts 353°
2026-04-22 10:38 56.40693 12.15831 14334 ft 374 kts 353°
2026-04-22 10:39 56.43268 12.15117 14334 ft 374 kts 353°
2026-04-22 10:39 56.45840 12.14403 14336 ft 374 kts 353°
2026-04-22 10:39 56.48413 12.13686 14332 ft 374 kts 353°
2026-04-22 10:39 56.50983 12.12966 14331 ft 374 kts 353°
2026-04-22 10:40 56.53556 12.12246 14324 ft 374 kts 353°
2026-04-22 10:40 56.56127 12.11529 14326 ft 374 kts 353°
2026-04-22 10:40 56.58702 12.10814 14321 ft 374 kts 353°
2026-04-22 10:40 56.61243 12.10109 14329 ft 375 kts 353°
2026-04-22 10:41 56.63818 12.09389 14331 ft 375 kts 353°
2026-04-22 10:41 56.66392 12.08664 14327 ft 375 kts 353°
2026-04-22 10:41 56.68970 12.07935 14330 ft 375 kts 353°
2026-04-22 10:41 56.71548 12.07207 14329 ft 375 kts 353°
2026-04-22 10:42 56.74125 12.06479 14323 ft 375 kts 353°
2026-04-22 10:42 56.76704 12.05751 14331 ft 375 kts 353°
2026-04-22 10:42 56.79281 12.05023 14328 ft 375 kts 353°
2026-04-22 10:42 56.81859 12.04291 14326 ft 375 kts 353°
2026-04-22 10:43 56.84438 12.03556 14327 ft 375 kts 353°
2026-04-22 10:43 56.86978 12.02829 14115 ft 363 kts 353°
2026-04-22 10:43 56.89423 12.02127 13857 ft 349 kts 353°
2026-04-22 10:43 56.91783 12.01451 13582 ft 337 kts 353°
2026-04-22 10:44 56.94063 12.00799 13321 ft 327 kts 353°
2026-04-22 10:44 56.96276 12.00172 13057 ft 317 kts 353°
2026-04-22 10:44 56.98430 11.99561 12802 ft 309 kts 353°
2026-04-22 10:44 57.00520 11.98964 12561 ft 296 kts 352°
2026-04-22 10:45 57.02496 11.98397 12194 ft 282 kts 352°
2026-04-22 10:45 57.04405 11.98069 11836 ft 270 kts
2026-04-22 10:45 57.06265 11.98421 11485 ft 269 kts
2026-04-22 10:45 57.08117 11.98885 11127 ft 269 kts
2026-04-22 10:46 57.09968 11.99343 10765 ft 268 kts
2026-04-22 10:46 57.11820 11.99805 10403 ft 269 kts
2026-04-22 10:46 57.13688 12.00268 9826 ft 274 kts
2026-04-22 10:46 57.15546 12.00728 9396 ft 265 kts
2026-04-22 10:47 57.17349 12.01179 9005 ft 259 kts
2026-04-22 10:47 57.19133 12.01624 8652 ft 258 kts
2026-04-22 10:47 57.20912 12.02063 8304 ft 258 kts
2026-04-22 10:47 57.22688 12.02502 7956 ft 257 kts
2026-04-22 10:48 57.24461 12.02946 7603 ft 257 kts
2026-04-22 10:48 57.26231 12.03391 7257 ft 257 kts
2026-04-22 10:48 57.27999 12.03834 6912 ft 256 kts
2026-04-22 10:48 57.29766 12.04275 6558 ft 256 kts
2026-04-22 10:49 57.31528 12.04710 6200 ft 255 kts
2026-04-22 10:49 57.33284 12.05146 5887 ft 253 kts
2026-04-22 10:49 57.34983 12.05576 5751 ft 238 kts
2026-04-22 10:49 57.36568 12.05981 5599 ft 222 kts
2026-04-22 10:50 57.38074 12.06366 5255 ft 216 kts
2026-04-22 10:50 57.39552 12.06741 4796 ft 214 kts
2026-04-22 10:50 57.41006 12.07108 4551 ft 208 kts
2026-04-22 10:50 57.42425 12.07465 4439 ft 203 kts
2026-04-22 10:51 57.43783 12.07875 4341 ft 195 kts 14°
2026-04-22 10:51 57.45040 12.08815 4256 ft 195 kts 21°
2026-04-22 10:51 57.46265 12.09896 4172 ft 195 kts 21°
2026-04-22 10:51 57.47485 12.10990 4081 ft 195 kts 21°
2026-04-22 10:52 57.48687 12.12072 3995 ft 187 kts 21°
2026-04-22 10:52 57.49840 12.13111 3809 ft 182 kts 21°
2026-04-22 10:52 57.50968 12.14124 3593 ft 180 kts 20°
2026-04-22 10:52 57.52080 12.15127 3383 ft 176 kts 21°
2026-04-22 10:53 57.53177 12.16114 3120 ft 176 kts 21°
2026-04-22 10:53 57.54264 12.17095 2860 ft 171 kts 21°
2026-04-22 10:53 57.55337 12.18063 2625 ft 169 kts 21°
2026-04-22 10:53 57.56390 12.19015 2400 ft 163 kts 21°
2026-04-22 10:54 57.57373 12.19905 2185 ft 152 kts 21°
2026-04-22 10:54 57.58316 12.20757 1994 ft 149 kts 21°
2026-04-22 10:54 57.59245 12.21596 1770 ft 145 kts 22°
2026-04-22 10:54 57.60126 12.22395 1591 ft 139 kts 22°
2026-04-22 10:55 57.60992 12.23179 1395 ft 138 kts 22°
2026-04-22 10:55 57.61869 12.23973 1205 ft 139 kts 23°
2026-04-22 10:55 57.62744 12.24765 1020 ft 139 kts 24°
2026-04-22 10:55 57.63621 12.25539 830 ft 141 kts 25°
2026-04-22 10:56 57.64493 12.26358 647 ft 140 kts 22°
2026-04-22 10:56 57.65371 12.27142 500 ft 133 kts 22°
2026-04-22 10:56 57.66093 12.27797 508 ft 100 kts 26°
2026-04-22 10:56 57.66555 12.28239 512 ft 44 kts 32°
2026-04-22 10:57 57.66716 12.28577 512 ft 17 kts 56°
2026-04-22 10:57 57.66789 12.28765 513 ft 19 kts 52°
2026-04-22 10:57 57.66891 12.28876 513 ft 17 kts 25°
2026-04-22 10:57 57.66995 12.28971 514 ft 9 kts 26°
2026-04-22 10:58 57.67044 12.29059 514 ft 11 kts 84°
2026-04-22 10:58 57.67015 12.29183 516 ft 7 kts 116°
2026-04-22 10:58 57.66996 12.29256 516 ft 5 kts 116°
2026-04-22 10:58 57.66983 12.29305 516 ft 4 kts 116°
2026-04-22 10:59 57.66956 12.29322 516 ft 5 kts 185°
2026-04-22 10:59 57.66914 12.29293 516 ft 7 kts 205°
2026-04-22 10:59 57.66879 12.29271 516 ft 4 kts 173°
2026-04-22 10:59 57.66863 12.29321 516 ft 6 kts 117°
2026-04-22 11:00 57.66855 12.29351 516 ft 3 kts 116°
2026-04-22 11:00 57.66849 12.29373 516 ft 1 kts 116°
2026-04-22 11:00 57.66848 12.29375 516 ft 0 kts 116°